Weather History for Sheldon, IA

Change the Weather History Date:

Tuesday, February 11, 2014

  Actual Average Record
Temperature  
Mean Temperature 0 °F -  
Max Temperature 19 °F 27 °F 62 °F (1977)
Min Temperature -18 °F 8 °F -99 °F (1999)
Degree Days  
Heating Degree Days 64    
Moisture  
Dew Point 0 °F    
Average Humidity 72    
Maximum Humidity 79    
Minimum Humidity 62    
Precipitation  
Precipitation 0.00 in - - ()
Sea Level Pressure  
Sea Level Pressure 30.17 in    
Wind  
Wind Speed 12 mph (South)    
Max Wind Speed 26 mph    
Max Gust Speed 33 mph    
Visibility 10 miles    
Events      
Averages and records for this station are not official NWS values.
T = Trace of Precipitation, MM = Missing Value Source: NWS Daily Summary

Daily Weather History Graph

Daily Weather History Graph

Search for Another Location

Airport:

Trip Planner

Search our weather history database for the weather conditions in past years. The results will help you decide how hot, cold, wet, or windy it might be!

Date:

Astronomy

Feb. 11, 2014 Rise Set
Actual Time 7:26 AM CST 5:49 PM CST
Civil Twilight 6:57 AM CST 6:18 PM CST
Nautical Twilight 6:23 AM CST 6:52 PM CST
Astronomical Twilight 5:50 AM CST 7:25 PM CST
Moon 3:08 PM CST (2/11) 5:06 AM CST (2/11)
Length of Visible Light 11h 21m
Length of Day
10h 22m
Waxing Gibbous, 91% of the Moon is Illuminated
Feb 11
Waxing Gibbous
Feb 14
Full
Feb 22
Last Quarter
Mar 1
New
Mar 8
First Quarter

Hourly Weather History & Observations

Time (CST) Temp. Windchill Dew Point Humidity Pressure Visibility Wind Dir Wind Speed Gust Speed Precip Events Conditions
12:15 AM -16.6 °F -31.3 °F -23.8 °F 70% 30.41 in 10.0 mi SE 5.8 mph - N/A   Clear
12:35 AM -18.4 °F -33.4 °F -25.6 °F 70% 30.39 in 10.0 mi SE 5.8 mph - N/A   Clear
12:55 AM -16.6 °F -26.8 °F -25.6 °F 64% 30.39 in 10.0 mi SSE 3.5 mph - N/A   Clear
1:15 AM -16.6 °F -29.3 °F -23.8 °F 70% 30.38 in 10.0 mi SE 4.6 mph - N/A   Scattered Clouds
1:35 AM -14.8 °F -27.2 °F -22.0 °F 70% 30.38 in 10.0 mi SE 4.6 mph - N/A   Mostly Cloudy
1:55 AM -14.8 °F -30.8 °F -22.0 °F 70% 30.37 in 10.0 mi SE 6.9 mph - N/A   Mostly Cloudy
2:15 AM -14.8 °F -30.8 °F -20.2 °F 77% 30.38 in 10.0 mi SE 6.9 mph - N/A   Mostly Cloudy
2:35 AM -11.2 °F -26.4 °F -18.4 °F 70% 30.37 in 10.0 mi SE 6.9 mph - N/A   Overcast
2:55 AM -9.4 °F -22.7 °F -16.6 °F 71% 30.36 in 10.0 mi SE 5.8 mph - N/A   Overcast
3:15 AM -7.6 °F -18.8 °F -14.8 °F 71% 30.36 in 10.0 mi SE 4.6 mph - N/A   Overcast
3:35 AM -7.6 °F - -13.0 °F 77% 30.35 in 10.0 mi Calm Calm - N/A   Overcast
3:55 AM -4.0 °F -17.8 °F -11.2 °F 71% 30.35 in 10.0 mi SSE 6.9 mph - N/A   Overcast
4:15 AM -4.0 °F -17.8 °F -9.4 °F 78% 30.34 in 10.0 mi SSE 6.9 mph - N/A   Overcast
4:35 AM -2.2 °F -16.8 °F -9.4 °F 71% 30.34 in 10.0 mi SSE 8.1 mph - N/A   Overcast
4:55 AM -4.0 °F -20.2 °F -9.4 °F 78% 30.33 in 10.0 mi SSE 9.2 mph - N/A   Overcast
5:15 AM -4.0 °F -20.2 °F -9.4 °F 78% 30.33 in 10.0 mi SSE 9.2 mph - N/A   Overcast
5:35 AM -4.0 °F -21.2 °F -9.4 °F 78% 30.32 in 10.0 mi SSE 10.4 mph - N/A   Overcast
5:55 AM -2.2 °F -18.0 °F -9.4 °F 71% 30.32 in 10.0 mi SSE 9.2 mph - N/A   Overcast
6:15 AM -2.2 °F -16.8 °F -7.6 °F 78% 30.31 in 10.0 mi SSE 8.1 mph - N/A   Overcast
6:35 AM -2.2 °F -16.8 °F -7.6 °F 78% 30.31 in 10.0 mi SSE 8.1 mph - N/A   Overcast
6:55 AM -0.4 °F -14.7 °F -5.8 °F 78% 30.31 in 10.0 mi South 8.1 mph - N/A   Overcast
7:15 AM -0.4 °F -15.7 °F -7.6 °F 72% 30.30 in 10.0 mi South 9.2 mph - N/A   Overcast
7:35 AM -2.2 °F -15.6 °F -7.6 °F 78% 30.30 in 10.0 mi South 6.9 mph - N/A   Scattered Clouds
7:55 AM -0.4 °F -16.7 °F -5.8 °F 78% 30.29 in 10.0 mi SSE 10.4 mph - N/A   Mostly Cloudy
8:15 AM 1.4 °F -16.9 °F -4.0 °F 78% 30.28 in 10.0 mi South 13.8 mph - N/A   Overcast
8:35 AM 1.4 °F -14.5 °F -4.0 °F 78% 30.28 in 10.0 mi SSE 10.4 mph - N/A   Overcast
8:55 AM 5.0 °F -11.6 °F -2.2 °F 72% 30.27 in 10.0 mi SSE 12.7 mph - N/A   Scattered Clouds
9:15 AM 6.8 °F -11.3 °F -0.4 °F 72% 30.27 in 10.0 mi SSE 16.1 mph 23.0 mph N/A   Mostly Cloudy
9:35 AM 6.8 °F -11.3 °F -0.4 °F 72% 30.26 in 10.0 mi South 16.1 mph 23.0 mph N/A   Overcast
9:55 AM 8.6 °F -8.9 °F 1.4 °F 73% 30.26 in 10.0 mi South 16.1 mph 23.0 mph N/A   Overcast
10:15 AM 10.4 °F -6.0 °F 1.4 °F 67% 30.25 in 10.0 mi South 15.0 mph - N/A   Overcast
10:35 AM 10.4 °F -6.0 °F 3.2 °F 73% 30.25 in 10.0 mi South 15.0 mph 20.7 mph N/A   Overcast
10:55 AM 12.2 °F -4.3 °F 3.2 °F 67% 30.25 in 10.0 mi South 16.1 mph - N/A   Overcast
11:15 AM 12.2 °F -5.3 °F 3.2 °F 67% 30.23 in 10.0 mi South 18.4 mph 27.6 mph N/A   Overcast
11:35 AM 12.2 °F -6.7 °F 3.2 °F 67% 30.22 in 10.0 mi South 21.9 mph 29.9 mph N/A   Overcast
11:55 AM 14.0 °F -3.9 °F 3.2 °F 62% 30.20 in 10.0 mi South 20.7 mph - N/A   Overcast
12:15 PM 14.0 °F -4.7 °F 5.0 °F 67% 30.18 in 10.0 mi South 23.0 mph - N/A   Overcast
12:35 PM 14.0 °F -4.7 °F 5.0 °F 67% 30.16 in 10.0 mi South 23.0 mph 31.1 mph N/A   Overcast
12:55 PM 15.8 °F -3.1 °F 5.0 °F 62% 30.14 in 10.0 mi South 25.3 mph 33.4 mph N/A   Overcast
1:15 PM 15.8 °F -3.4 °F 5.0 °F 62% 30.13 in 10.0 mi South 26.5 mph 32.2 mph N/A   Overcast
1:35 PM 15.8 °F -1.1 °F 6.8 °F 68% 30.11 in 10.0 mi South 19.6 mph 33.4 mph N/A   Overcast
1:55 PM 15.8 °F -1.9 °F 6.8 °F 68% 30.09 in 10.0 mi South 21.9 mph 31.1 mph N/A   Overcast
2:15 PM 17.6 °F 0.1 °F 8.6 °F 68% 30.08 in 10.0 mi South 23.0 mph 32.2 mph N/A   Overcast
2:35 PM 17.6 °F 1.3 °F 8.6 °F 68% 30.07 in 10.0 mi South 19.6 mph 27.6 mph N/A   Overcast
2:55 PM 17.6 °F 1.3 °F 8.6 °F 68% 30.07 in 10.0 mi South 19.6 mph 26.5 mph N/A   Overcast
3:15 PM 17.6 °F 0.9 °F 8.6 °F 68% 30.06 in 10.0 mi South 20.7 mph 28.8 mph N/A   Overcast
3:35 PM 17.6 °F 0.5 °F 10.4 °F 73% 30.04 in 10.0 mi South 21.9 mph 27.6 mph N/A   Overcast
3:55 PM 19.4 °F 2.1 °F 10.4 °F 68% 30.03 in 10.0 mi South 24.2 mph - N/A   Overcast
4:15 PM 19.4 °F 2.1 °F 10.4 °F 68% 30.03 in 10.0 mi South 24.2 mph - N/A   Overcast
4:35 PM 19.4 °F 3.6 °F 12.2 °F 74% 30.02 in 10.0 mi South 19.6 mph - N/A   Overcast
4:55 PM 19.4 °F 2.8 °F 12.2 °F 74% 30.01 in 10.0 mi South 21.9 mph 28.8 mph N/A   Overcast
5:15 PM 17.6 °F -0.3 °F 10.4 °F 73% 29.99 in 10.0 mi South 24.2 mph - N/A   Overcast
5:35 PM 17.6 °F 0.9 °F 10.4 °F 73% 30.00 in 10.0 mi South 20.7 mph 31.1 mph N/A   Overcast
5:55 PM 17.6 °F 1.3 °F 10.4 °F 73% 30.01 in 10.0 mi South 19.6 mph - N/A   Overcast
6:15 PM 17.6 °F 1.7 °F 10.4 °F 73% 30.00 in 10.0 mi South 18.4 mph - N/A   Overcast
6:35 PM 17.6 °F 3.7 °F 10.4 °F 73% 30.00 in 10.0 mi South 13.8 mph - N/A   Overcast
6:55 PM 17.6 °F 2.7 °F 10.4 °F 73% 30.00 in 10.0 mi South 16.1 mph - N/A   Overcast
7:15 PM 17.6 °F 2.7 °F 10.4 °F 73% 30.00 in 10.0 mi South 16.1 mph 21.9 mph N/A   Overcast
7:35 PM 17.6 °F 1.7 °F 10.4 °F 73% 29.99 in 10.0 mi South 18.4 mph 24.2 mph N/A   Scattered Clouds
7:55 PM 17.6 °F 2.7 °F 10.4 °F 73% 29.99 in 10.0 mi South 16.1 mph 23.0 mph N/A   Partly Cloudy
8:15 PM 17.6 °F 2.2 °F 10.4 °F 73% 29.99 in 10.0 mi South 17.3 mph - N/A   Mostly Cloudy
8:35 PM 17.6 °F 0.9 °F 10.4 °F 73% 29.99 in 10.0 mi South 20.7 mph - N/A   Overcast
8:55 PM 17.6 °F 1.3 °F 10.4 °F 73% 29.98 in 10.0 mi South 19.6 mph 26.5 mph N/A   Overcast
9:15 PM 17.6 °F 2.2 °F 10.4 °F 73% 29.98 in 10.0 mi South 17.3 mph 25.3 mph N/A   Overcast
9:35 PM 17.6 °F 1.7 °F 10.4 °F 73% 29.99 in 10.0 mi South 18.4 mph 27.6 mph N/A   Overcast
9:55 PM 17.6 °F 0.5 °F 10.4 °F 73% 29.98 in 10.0 mi South 21.9 mph 28.8 mph N/A   Mostly Cloudy
10:15 PM 17.6 °F 0.1 °F 10.4 °F 73% 29.97 in 10.0 mi South 23.0 mph - N/A   Overcast
10:35 PM 17.6 °F 0.9 °F 10.4 °F 73% 29.97 in 10.0 mi South 20.7 mph 27.6 mph N/A   Overcast
10:55 PM 17.6 °F 0.9 °F 10.4 °F 73% 29.96 in 10.0 mi South 20.7 mph 28.8 mph N/A   Overcast
11:15 PM 15.8 °F -0.6 °F 10.4 °F 79% 29.96 in 10.0 mi South 18.4 mph 25.3 mph N/A   Overcast
11:35 PM 15.8 °F -0.6 °F 10.4 °F 79% 29.95 in - South 18.4 mph - N/A   Overcast
11:55 PM 15.8 °F -0.6 °F 10.4 °F 79% 29.94 in 10.0 mi South 18.4 mph 26.5 mph N/A   Overcast